Monticello, IA

7:16 AM CST on February 14, 2016 (GMT -0600)
Monticello Regional

Weather History for KMXO - May, 2013

Change the Weather History Date:

Sunday, May 26, 2013

  Actual Average Record
Temperature  
Mean Temperature 50 °F -  
Max Temperature 55 °F 70 °F 87 °F (2012)
Min Temperature 46 °F 50 °F 42 °F (2003)
Degree Days  
Heating Degree Days 14    
Moisture  
Dew Point 48 °F    
Average Humidity 89    
Maximum Humidity 100    
Minimum Humidity 67    
Precipitation  
Precipitation 2.24 in - - ()
Sea Level Pressure  
Sea Level Pressure 30.16 in    
Wind  
Wind Speed 10 mph (East)    
Max Wind Speed 25 mph    
Max Gust Speed 33 mph    
Visibility 8 miles    
Events Rain    
Averages and records for this station are not official NWS values.
T = Trace of Precipitation, MM = Missing Value Source: NWS Daily Summary

Daily Weather History Graph

Daily Weather History Graph

Search for Another Location

Airport or City:

Trip Planner

Search our weather history database for the weather conditions in past years. The results will help you decide how hot, cold, wet, or windy it might be!

Date:

Astronomy

May. 26, 2013 Rise Set
Actual Time 5:34 AM CDT 8:29 PM CDT
Civil Twilight 5:00 AM CDT 9:03 PM CDT
Nautical Twilight 4:18 AM CDT 9:45 PM CDT
Astronomical Twilight 3:29 AM CDT 10:35 PM CDT
Moon 10:16 PM CDT (5/26) 7:03 AM CDT (5/26)
Length of Visible Light 16h 02m
Length of Day
14h 55m
Waning Gibbous, 96% of the Moon is Illuminated
May 26
Waning Gibbous
May 31
Last Quarter
Jun 8
New
Jun 16
First Quarter
Jun 23
Full

Hourly Weather History & Observations

Time (CDT) Temp. Windchill Dew Point Humidity Pressure Visibility Wind Dir Wind Speed Gust Speed Precip Events Conditions
12:15 AM 50.0 °F - 46.4 °F 87% 30.25 in 10.0 mi East 9.2 mph - N/A   Partly Cloudy
12:35 AM 50.0 °F - 46.4 °F 87% 30.24 in 10.0 mi East 9.2 mph - N/A   Clear
12:55 AM 48.2 °F - 44.6 °F 87% 30.23 in 10.0 mi East 6.9 mph - N/A   Clear
1:15 AM 48.2 °F - 44.6 °F 87% 30.23 in 10.0 mi East 9.2 mph - N/A   Clear
1:35 AM 48.2 °F - 44.6 °F 87% 30.23 in 10.0 mi East 6.9 mph - N/A   Partly Cloudy
1:55 AM 48.2 °F - 44.6 °F 87% 30.22 in 10.0 mi East 6.9 mph - N/A   Mostly Cloudy
2:15 AM 48.2 °F - 44.6 °F 87% 30.22 in 10.0 mi East 8.1 mph - N/A   Scattered Clouds
2:35 AM 48.2 °F - 44.6 °F 87% 30.21 in 10.0 mi East 6.9 mph - N/A   Clear
2:55 AM 48.2 °F - 44.6 °F 87% 30.21 in 10.0 mi East 9.2 mph - N/A   Clear
3:15 AM 48.2 °F - 44.6 °F 87% 30.21 in 10.0 mi East 6.9 mph - N/A   Clear
3:35 AM 48.2 °F - 44.6 °F 87% 30.22 in 10.0 mi East 6.9 mph - N/A   Scattered Clouds
3:55 AM 46.4 °F 41.9 °F 44.6 °F 93% 30.21 in 10.0 mi East 9.2 mph - N/A   Mostly Cloudy
4:15 AM 48.2 °F - 42.8 °F 82% 30.19 in 10.0 mi East 11.5 mph - N/A   Overcast
4:35 AM 48.2 °F - 42.8 °F 82% 30.19 in 10.0 mi East 12.7 mph 18.4 mph N/A   Overcast
4:55 AM 48.2 °F - 42.8 °F 82% 30.19 in 10.0 mi East 12.7 mph 18.4 mph N/A   Overcast
5:15 AM 48.2 °F - 42.8 °F 82% 30.20 in 10.0 mi East 11.5 mph - N/A   Overcast
5:35 AM 48.2 °F - 42.8 °F 82% 30.19 in 10.0 mi ESE 11.5 mph - N/A   Overcast
5:55 AM 50.0 °F - 44.6 °F 82% 30.20 in 10.0 mi ESE 11.5 mph - N/A   Overcast
6:15 AM 50.0 °F - 44.6 °F 82% 30.21 in 10.0 mi East 10.4 mph - N/A   Overcast
6:35 AM 50.0 °F - 44.6 °F 82% 30.22 in 10.0 mi East 11.5 mph - N/A   Overcast
6:55 AM 50.0 °F - 44.6 °F 82% 30.22 in 10.0 mi ESE 10.4 mph - N/A   Overcast
7:15 AM 50.0 °F - 42.8 °F 76% 30.21 in 10.0 mi East 11.5 mph 18.4 mph N/A   Overcast
7:35 AM 50.0 °F - 42.8 °F 76% 30.22 in 10.0 mi East 10.4 mph 17.3 mph N/A   Overcast
7:55 AM 50.0 °F - 42.8 °F 76% 30.21 in 10.0 mi East 10.4 mph 17.3 mph N/A   Overcast
8:15 AM 50.0 °F - 42.8 °F 76% 30.21 in 10.0 mi ESE 12.7 mph - N/A   Overcast
8:35 AM 50.0 °F - 41.0 °F 71% 30.21 in 10.0 mi ESE 13.8 mph - N/A   Overcast
8:55 AM 51.8 °F - 41.0 °F 67% 30.21 in 10.0 mi ESE 13.8 mph - N/A   Overcast
9:15 AM 50.0 °F - 42.8 °F 76% 30.20 in 9.0 mi SE 15.0 mph 23.0 mph N/A Rain Light Rain
9:35 AM 50.0 °F - 44.6 °F 82% 30.23 in 5.0 mi ESE 4.6 mph 12.7 mph N/A Rain Light Rain
9:55 AM 50.0 °F - 44.6 °F 82% 30.20 in 10.0 mi East 11.5 mph - 0.01 in   Overcast
10:15 AM 50.0 °F - 46.4 °F 87% 30.21 in 8.0 mi East 8.1 mph 16.1 mph N/A   Light Drizzle
10:35 AM 50.0 °F - 44.6 °F 82% 30.22 in 8.0 mi East 8.1 mph - N/A   Light Drizzle
10:55 AM 50.0 °F - 44.6 °F 82% 30.25 in 10.0 mi Calm Calm - 0.01 in   Overcast
11:15 AM 50.0 °F - 46.4 °F 87% 30.26 in 4.0 mi ESE 5.8 mph - N/A Rain Light Rain
11:35 AM 50.0 °F - 46.4 °F 87% 30.24 in 4.0 mi East 9.2 mph - N/A Rain Light Rain
11:55 AM 50.0 °F - 48.2 °F 94% 30.21 in 4.0 mi East 11.5 mph 18.4 mph 0.10 in Rain Light Rain
12:15 PM 50.0 °F - 48.2 °F 94% 30.19 in 7.0 mi ENE 10.4 mph 16.1 mph N/A   Light Drizzle
12:35 PM 50.0 °F - 48.2 °F 94% 30.19 in 8.0 mi East 8.1 mph 16.1 mph N/A   Light Drizzle
12:55 PM 50.0 °F - 48.2 °F 94% 30.18 in 4.0 mi ENE 10.4 mph - 0.04 in Rain Light Rain
1:15 PM 50.0 °F - 48.2 °F 94% 30.20 in 3.0 mi Variable 4.6 mph - N/A Rain Light Rain
1:35 PM 50.0 °F - 48.2 °F 94% 30.21 in 2.5 mi Calm Calm 15.0 mph N/A Rain Rain
1:55 PM 50.0 °F - 48.2 °F 94% 30.20 in 2.0 mi SE 8.1 mph - 0.18 in Rain Light Rain
2:15 PM 50.0 °F - 50.0 °F 100% 30.06 in 1.8 mi East 24.2 mph 33.4 mph N/A Rain Rain
2:35 PM 51.8 °F - 50.0 °F 94% 30.15 in 7.0 mi ESE 16.1 mph - N/A   Light Drizzle
2:55 PM 51.8 °F - 50.0 °F 94% 30.10 in 4.0 mi SE 20.7 mph 29.9 mph 0.12 in Rain Light Rain
3:15 PM 53.6 °F - 51.8 °F 94% 30.10 in 9.0 mi SE 20.7 mph 29.9 mph N/A   Clear
3:35 PM 55.4 °F - 51.8 °F 88% 30.08 in 9.0 mi ESE 25.3 mph 33.4 mph N/A   Clear
3:55 PM 53.6 °F - 51.8 °F 94% 30.14 in 5.0 mi ESE 9.2 mph 21.9 mph 0.03 in   Mostly Cloudy
4:15 PM 53.6 °F - 51.8 °F 94% 30.11 in 1.0 mi East 12.7 mph 19.6 mph N/A Rain Rain
4:35 PM 53.6 °F - 51.8 °F 94% 30.11 in 0.2 mi ENE 11.5 mph - N/A Rain Heavy Rain
4:55 PM 53.6 °F - 51.8 °F 94% 30.12 in 1.8 mi Variable 5.8 mph - 1.63 in Rain Light Rain
5:15 PM 53.6 °F - 51.8 °F 94% 30.12 in 4.0 mi East 9.2 mph 17.3 mph N/A Rain Light Rain
5:35 PM 53.6 °F - 53.6 °F 100% 30.10 in 4.0 mi ESE 11.5 mph - N/A   Overcast
5:55 PM 53.6 °F - 53.6 °F 100% 30.11 in 7.0 mi East 9.2 mph - 0.08 in   Overcast
6:15 PM 53.6 °F - 53.6 °F 100% 30.08 in 7.0 mi East 11.5 mph - N/A   Overcast
6:35 PM 53.6 °F - 53.6 °F 100% 30.06 in 5.0 mi East 15.0 mph - N/A Rain Light Rain
6:55 PM 55.4 °F - 53.6 °F 94% 30.04 in 5.0 mi ESE 19.6 mph 25.3 mph 0.03 in Rain Light Rain
7:15 PM 55.4 °F - 53.6 °F 94% 30.05 in 9.0 mi East 15.0 mph 24.2 mph N/A   Overcast
7:35 PM 55.4 °F - 53.6 °F 94% 30.09 in 9.0 mi Variable 4.6 mph 15.0 mph N/A   Overcast
7:55 PM 55.4 °F - 53.6 °F 94% 30.10 in 10.0 mi East 4.6 mph - N/A   Overcast
8:15 PM 55.4 °F - 53.6 °F 94% 30.09 in 8.0 mi East 9.2 mph - N/A   Overcast
8:35 PM 55.4 °F - 53.6 °F 94% 30.08 in 7.0 mi East 10.4 mph - N/A   Overcast
8:55 PM 55.4 °F - 53.6 °F 94% 30.05 in 7.0 mi East 10.4 mph - 0.01 in   Overcast
9:15 PM 55.4 °F - 53.6 °F 94% 30.06 in 6.0 mi East 10.4 mph - N/A   Overcast
9:35 PM 55.4 °F - 53.6 °F 94% 30.07 in 6.0 mi East 10.4 mph 17.3 mph N/A   Overcast
9:55 PM 55.4 °F - 53.6 °F 94% 30.06 in 7.0 mi East 13.8 mph - N/A   Overcast
10:15 PM 55.4 °F - 53.6 °F 94% 30.07 in 7.0 mi East 15.0 mph - N/A   Overcast
10:35 PM 55.4 °F - 53.6 °F 94% 30.07 in 7.0 mi East 10.4 mph 21.9 mph N/A   Overcast
10:55 PM 55.4 °F - 53.6 °F 94% 30.07 in 8.0 mi East 12.7 mph 20.7 mph N/A   Overcast
11:15 PM 55.4 °F - 53.6 °F 94% 30.05 in 7.0 mi East 11.5 mph 18.4 mph N/A   Overcast
11:35 PM 55.4 °F - 53.6 °F 94% 30.04 in 6.0 mi East 12.7 mph - N/A   Overcast
11:55 PM 55.4 °F - 55.4 °F 100% 30.05 in 6.0 mi East 8.1 mph 18.4 mph N/A   Overcast